Location: Mannheim
(49.4880°N, 8.4650°E)
Time: 19:13:50
(UTC+01:00)

ISS - Pass Details

Date: 22 September 2018
Orbit: 402 x 409 km, 51.6° (Epoch: 13 November)

Event Time Altitude Azimuth Distance (km) Brightness Sun altitude
Rises 20:12:32 0° 190° (S) 2,333 0.0 -8.6°
Reaches altitude 10° 20:15:47 10° 155° (SSE) 1,477 -1.3 -9.1°
Maximum altitude 20:16:56 11° 135° (SE) 1,396 -1.6 -9.3°
Enters shadow 20:17:23 11° 127° (SE) 1,409 -1.6 -9.4°
